Location: Chagrin Falls Park
(41.4139°N, 81.3865°W)
Time: 00:22:48
(UTC+00:00)

STARLINK-2657 - Pass Details

Date: 31 July 2021
Orbit: 546 x 548 km, 53.1° (Epoch: 20 September)

Event Time Altitude Azimuth Distance (km) Brightness Sun altitude
Rises 03:09:26 0° 293° (WNW) 2,718 8.1 -21.8°
Reaches altitude 10° 03:12:22 10° 271° (W) 1,819 6.7 -22.2°
Maximum altitude 03:14:53 16° 233° (SW) 1,475 5.8 -22.4°
Enters shadow 03:15:02 16° 231° (SW) 1,476 5.7 -22.5°
